PBO Station Position Time Series. Reference Frame : NAM14
Format Version,1.1.0
4-character ID,P533
Station name,SpringRancCS2006
Begin Date, 2006-05-10
End Date, 2019-10-07
Release Date, 2019-10-08
Reference position, 35.7479306437 North Latitude, -120.3709544351 East Longitude, 603.19700 meters elevation,
Date, North (mm), East (mm), Vertical (mm), North Std. Deviation (mm), East Std. Deviation (mm),              Vertical Std. Deviation (mm), Quality,
2006-05-10,0.00, 0.00, 0.00, 1.95, 1.60, 7.38, repro,
2006-05-11,-0.85, -1.00, 1.26, 1.94, 1.61, 7.39, repro,
2006-05-12,-1.04, -0.50, -2.96, 1.98, 1.65, 7.47, repro,
2006-05-13,-0.84, -0.96, -0.53, 1.93, 1.59, 7.28, repro,
2006-05-14,-0.54, -1.01, 0.26, 1.93, 1.59, 7.31, repro,
2006-05-15,-1.27, 0.07, -4.95, 1.96, 1.61, 7.43, repro,
2006-05-16,-2.32, -0.27, -3.36, 1.97, 1.65, 7.52, repro,
2006-05-17,-1.29, -0.12, 5.19, 2.16, 1.85, 8.37, repro,
2006-05-18,0.24, 0.62, 0.14, 1.94, 1.61, 7.37, repro,
2006-05-19,-1.07, -0.95, 1.84, 2.05, 1.64, 7.57, repro,
2006-05-20,-0.61, -1.98, 5.22, 2.06, 1.68, 7.79, repro,
2006-05-21,-2.67, -1.02, -1.80, 2.09, 1.65, 7.69, repro,
2006-05-22,-1.53, -1.10, 2.42, 2.27, 1.84, 8.63, repro,
2006-05-23,-1.08, -1.56, -2.50, 2.01, 1.62, 7.49, repro,
2006-05-24,-1.28, -1.06, -4.19, 2.02, 1.67, 7.56, repro,
2006-05-25,-2.42, -1.77, 3.07, 2.15, 1.73, 8.03, repro,
2006-05-26,-0.95, -1.95, 5.12, 2.09, 1.65, 7.74, repro,
2006-05-27,-2.31, -0.37, 11.29, 2.02, 1.62, 7.52, repro,
2006-05-28,-1.47, -1.22, 2.70, 2.01, 1.62, 7.49, repro,
2006-05-29,-0.10, -0.19, 2.95, 2.01, 1.62, 7.47, repro,
2006-05-30,-0.36, -0.58, -1.98, 2.05, 1.65, 7.58, repro,
2006-05-31,-1.13, -0.50, 1.89, 2.10, 1.69, 7.77, repro,
2006-06-01,-1.11, 1.07, 1.82, 2.06, 1.65, 7.67, repro,
2006-06-02,-1.30, 0.07, 0.26, 2.19, 1.77, 8.12, repro,
2006-06-03,-1.47, -0.28, -1.18, 2.08, 1.68, 7.76, repro,
2006-06-04,-1.15, 0.62, 4.24, 2.05, 1.64, 7.59, repro,
2006-06-05,-2.24, -0.06, 4.44, 2.07, 1.65, 7.68, repro,
2006-06-06,-1.44, 0.16, 2.14, 2.08, 1.65, 7.70, repro,
2006-06-07,-0.97, 1.30, -3.05, 2.07, 1.65, 7.68, repro,
2006-06-08,-1.11, -0.75, -4.12, 2.01, 1.62, 7.47, repro,
2006-06-09,-0.50, 0.32, 2.66, 2.08, 1.68, 7.71, repro,
2006-06-10,-0.84, -0.57, 2.58, 2.00, 1.61, 7.42, repro,
2006-06-11,-2.58, -0.29, 1.08, 2.05, 1.66, 7.70, repro,
2006-06-12,-0.15, -1.66, 7.92, 2.08, 1.72, 7.80, repro,
2006-06-13,-1.48, -1.03, 4.27, 2.07, 1.65, 7.63, repro,
2006-06-14,-0.53, -0.73, 3.32, 2.01, 1.61, 7.45, repro,
2006-06-15,0.69, -0.55, 10.98, 2.04, 1.65, 7.62, repro,
2006-06-16,-0.28, 1.17, 2.17, 2.01, 1.62, 7.50, repro,
2006-06-17,-0.17, 1.59, 4.94, 2.01, 1.62, 7.51, repro,
2006-06-18,-1.74, -0.00, 8.53, 2.04, 1.66, 7.72, repro,
2006-06-19,-2.05, 0.06, 2.27, 2.04, 1.66, 7.71, repro,
2006-06-20,0.07, 0.75, 1.57, 2.03, 1.65, 7.68, repro,
2006-06-21,-1.07, -1.68, 5.55, 2.04, 1.66, 7.70, repro,
2006-06-22,-0.71, -0.25, 5.86, 2.04, 1.68, 7.75, repro,
2006-06-23,-1.01, 0.43, -0.84, 2.04, 1.68, 7.77, repro,
2006-06-24,-1.11, -0.33, -0.29, 2.05, 1.67, 7.77, repro,
2006-06-25,-1.30, 0.08, -0.55, 2.04, 1.67, 7.70, repro,
2006-06-26,-0.38, 0.12, 7.04, 2.08, 1.73, 7.83, repro,
2006-06-27,-1.81, -1.87, -1.12, 2.10, 1.75, 7.92, repro,
2006-06-28,-0.36, -0.24, -1.33, 2.04, 1.68, 7.75, repro,
2006-06-29,-1.64, -0.98, 8.06, 2.00, 1.68, 7.65, repro,
2006-06-30,-1.23, -0.35, 6.84, 2.01, 1.64, 7.69, repro,
2006-07-01,-1.94, -0.42, 9.73, 2.00, 1.62, 7.59, repro,
2006-07-02,-0.53, -0.50, 4.21, 2.04, 1.69, 7.80, repro,
2006-07-03,-0.54, -0.54, 0.80, 2.04, 1.67, 7.86, repro,
2006-07-04,-2.18, 0.68, 1.73, 1.99, 1.63, 7.61, repro,
2006-07-05,-1.21, -0.77, -1.91, 2.02, 1.63, 7.67, repro,
2006-07-06,-1.07, -0.18, -7.17, 2.02, 1.63, 7.65, repro,
2006-07-07,-1.58, -0.26, 0.33, 2.00, 1.63, 7.63, repro,
2006-07-08,-0.58, 0.16, -4.24, 2.00, 1.64, 7.66, repro,
2006-07-09,-0.86, 0.26, 0.49, 2.00, 1.64, 7.66, repro,
2006-07-10,-1.36, -0.20, -1.14, 2.03, 1.64, 7.70, repro,
2006-07-11,-0.69, -0.51, 3.97, 2.02, 1.63, 7.69, repro,
2006-07-12,-0.22, 0.36, -0.76, 2.01, 1.63, 7.62, repro,
2006-07-13,-0.67, -0.19, 1.44, 2.01, 1.64, 7.69, repro,
2006-07-14,-0.44, 1.09, 5.00, 2.01, 1.64, 7.72, repro,
2006-07-15,-1.35, 0.35, 3.48, 2.02, 1.64, 7.72, repro,
2006-07-16,-0.59, -0.49, 0.21, 2.01, 1.63, 7.69, repro,
2006-07-17,-0.56, -0.14, 1.33, 2.10, 1.74, 8.07, repro,
2006-07-18,-1.96, 0.01, 8.88, 1.94, 1.60, 7.34, repro,
2006-07-19,-0.52, -0.20, 0.42, 1.92, 1.61, 7.36, repro,
2006-07-20,-0.63, 1.00, -0.80, 1.95, 1.61, 7.43, repro,
2006-07-21,-0.66, 0.20, -1.87, 1.95, 1.60, 7.40, repro,
2006-07-22,-0.54, -0.17, -0.28, 1.95, 1.60, 7.39, repro,
2006-07-23,1.25, 0.89, -1.76, 1.99, 1.67, 7.69, repro,
2006-07-24,0.99, -0.14, 4.45, 1.93, 1.60, 7.31, repro,
2006-07-25,-1.06, -1.33, 7.40, 1.93, 1.60, 7.33, repro,
2006-07-26,-0.63, 0.36, 2.88, 1.97, 1.66, 7.56, repro,
2006-07-27,-0.11, 0.46, -1.14, 1.96, 1.60, 7.39, repro,
2006-07-28,-0.57, 1.48, -1.24, 1.96, 1.60, 7.33, repro,
2006-07-29,0.83, -1.95, -3.53, 1.93, 1.60, 7.33, repro,
2006-07-30,-0.15, -0.23, 0.84, 1.98, 1.65, 7.51, repro,
2006-07-31,-0.58, 0.21, 3.09, 1.93, 1.61, 7.41, repro,
2006-08-01,0.35, -0.20, 4.39, 1.95, 1.61, 7.40, repro,
2006-08-02,-0.98, 0.03, 2.74, 2.00, 1.71, 7.75, repro,
2006-08-03,-2.06, 0.18, 1.40, 2.00, 1.70, 7.75, repro,
2006-08-04,-1.51, -0.34, -0.58, 2.04, 1.68, 7.79, repro,
2006-08-05,-1.40, 0.44, 3.56, 2.02, 1.71, 7.85, repro,
2006-08-06,-1.25, 0.39, -2.98, 1.99, 1.66, 7.72, repro,
2006-08-07,-0.50, -0.35, -0.03, 1.99, 1.65, 7.66, repro,
2006-08-08,-1.61, -0.05, -2.20, 2.09, 1.74, 7.97, repro,
2006-08-09,-0.16, 1.10, -4.00, 1.98, 1.66, 7.53, repro,
2006-08-10,0.38, 0.46, 3.50, 1.95, 1.61, 7.44, repro,
2006-08-11,-1.01, 0.49, 5.35, 1.96, 1.62, 7.45, repro,
2006-08-12,-0.82, 0.38, -1.39, 1.99, 1.67, 7.56, repro,
2006-08-13,-1.14, -0.79, 4.36, 1.98, 1.67, 7.55, repro,
2006-08-14,-0.98, -0.15, 7.15, 1.98, 1.66, 7.51, repro,
2006-08-15,-1.32, -0.05, 2.25, 2.06, 1.70, 7.74, repro,
2006-08-16,-1.21, -0.45, -0.96, 1.99, 1.67, 7.60, repro,
2006-08-17,-0.45, 0.15, 3.18, 2.00, 1.67, 7.59, repro,
2006-08-18,-1.60, -0.82, 4.93, 2.02, 1.71, 7.69, repro,
2006-08-19,-1.32, -0.37, -1.14, 1.95, 1.61, 7.36, repro,
2006-08-20,-1.32, -0.64, 4.73, 1.93, 1.61, 7.36, repro,
2006-08-21,-0.20, 0.98, -2.71, 1.98, 1.69, 7.71, repro,
2006-08-22,-1.34, -0.36, 4.70, 1.96, 1.64, 7.48, repro,
2006-08-23,-0.24, 0.74, 5.41, 1.96, 1.63, 7.44, repro,
2006-08-24,-0.97, 0.50, 8.13, 1.95, 1.64, 7.42, repro,
2006-08-25,-1.38, 0.14, 11.83, 1.99, 1.68, 7.69, repro,
2006-08-26,-1.54, -0.07, 7.70, 2.01, 1.70, 7.77, repro,
2006-08-27,-0.90, -0.19, -1.61, 2.03, 1.73, 7.87, repro,
2006-08-28,-2.66, -0.66, 1.82, 2.02, 1.72, 7.84, repro,
2006-08-29,-1.41, -1.14, -2.57, 2.02, 1.73, 7.85, repro,
2006-08-30,-3.07, -0.09, -0.49, 2.08, 1.75, 8.09, repro,
2006-08-31,-2.15, 0.53, 0.45, 2.01, 1.73, 7.82, repro,
2006-09-01,-0.45, 0.35, 3.88, 2.05, 1.76, 7.99, repro,
2006-09-02,-0.48, -0.04, -3.19, 2.02, 1.73, 7.86, repro,
2006-09-03,-1.36, -0.04, 1.75, 2.01, 1.72, 7.83, repro,
2006-09-04,-1.47, 0.16, 1.84, 2.08, 1.76, 8.04, repro,
2006-09-05,-0.80, 0.10, -1.74, 2.06, 1.76, 7.96, repro,
2006-09-06,0.87, 0.48, -1.50, 2.00, 1.72, 7.79, repro,
2006-09-07,-1.48, 0.31, 6.51, 2.06, 1.78, 8.08, repro,
2006-09-08,-1.26, -0.03, 1.40, 2.06, 1.77, 8.06, repro,
2006-09-09,-0.93, -1.13, -1.19, 1.99, 1.69, 7.60, repro,
2006-09-10,0.03, -0.62, -0.82, 1.98, 1.68, 7.56, repro,
2006-09-11,-0.86, 0.73, 0.58, 1.97, 1.68, 7.56, repro,
2006-09-12,0.21, -0.21, 2.97, 1.98, 1.68, 7.61, repro,
2006-09-13,-1.15, 0.49, 7.94, 2.00, 1.69, 7.65, repro,
2006-09-14,-1.85, 0.64, 2.76, 2.08, 1.78, 7.89, repro,
2006-09-15,1.26, -3.00, 0.73, 2.03, 1.66, 7.60, repro,
2006-09-16,-0.82, -0.83, 4.42, 1.95, 1.64, 7.42, repro,
2006-09-17,0.26, 0.51, 5.58, 1.96, 1.64, 7.47, repro,
2006-09-18,-0.81, 0.12, 3.63, 1.97, 1.64, 7.49, repro,
2006-09-19,-0.69, -0.69, 4.99, 1.96, 1.64, 7.47, repro,
2006-09-20,-1.91, -0.06, 3.08, 1.95, 1.64, 7.41, repro,
2006-09-21,-1.71, 0.04, 7.27, 1.98, 1.69, 7.59, repro,
2006-09-22,-0.24, -0.03, 8.93, 2.07, 1.74, 7.90, repro,
2006-09-23,-0.66, -0.21, -0.90, 2.05, 1.70, 7.77, repro,
2006-09-24,0.04, -0.34, -4.08, 2.17, 1.78, 8.33, repro,
2006-09-25,-1.21, -0.74, 3.20, 2.10, 1.74, 8.01, repro,
2006-09-26,-0.84, -0.61, 4.79, 2.01, 1.66, 7.53, repro,
2006-09-27,-0.02, -0.62, -2.46, 2.03, 1.70, 7.73, repro,
2006-09-28,-0.66, -0.48, 6.29, 2.03, 1.67, 7.63, repro,
2006-09-29,-0.96, -0.27, 4.96, 2.02, 1.68, 7.60, repro,
2006-09-30,0.07, -0.28, 5.84, 2.01, 1.68, 7.72, repro,
2006-10-01,-0.90, -0.87, 6.11, 2.02, 1.72, 7.81, repro,
2006-10-02,0.23, -0.40, 5.20, 2.01, 1.73, 7.63, repro,
2006-10-03,-1.68, -1.02, -1.70, 2.11, 1.78, 7.96, repro,
2006-10-04,-0.94, -2.04, 1.87, 2.04, 1.71, 7.78, repro,
2006-10-05,-0.85, -0.89, 7.62, 2.16, 1.81, 8.41, repro,
2006-10-06,-1.02, -1.81, 0.71, 2.02, 1.68, 7.80, repro,
2006-10-07,-1.04, -1.57, -3.08, 2.04, 1.72, 7.94, repro,
2006-10-08,-0.76, -0.49, 2.03, 2.05, 1.72, 7.96, repro,
2006-10-09,-0.66, -0.28, -2.55, 2.10, 1.74, 8.05, repro,
2006-10-10,-1.61, -1.41, -5.56, 2.02, 1.70, 7.82, repro,
2006-10-11,-0.98, -1.61, -0.69, 2.03, 1.73, 7.91, repro,
2006-10-12,-1.64, -1.15, 5.30, 2.03, 1.73, 7.78, repro,
2006-10-13,-0.55, -1.45, 6.53, 1.93, 1.65, 7.55, repro,
2006-10-14,-0.33, -1.10, 3.65, 1.97, 1.69, 7.67, repro,
2006-10-15,-1.01, -1.27, 8.18, 1.97, 1.70, 7.74, repro,
2006-10-16,-1.64, -1.41, 15.52, 2.00, 1.66, 7.69, repro,
2006-10-17,-1.57, -0.98, 10.34, 2.03, 1.78, 8.07, repro,
2006-10-18,-0.25, -0.39, 3.75, 2.02, 1.79, 8.08, repro,
2006-10-19,-0.62, -0.52, 2.71, 2.15, 1.76, 8.34, repro,
2006-10-20,-0.04, -0.84, 3.60, 2.28, 1.95, 9.51, repro,
2006-10-21,-1.82, -0.29, 8.09, 2.12, 1.76, 8.39, repro,
2006-10-22,-1.62, -1.16, 5.79, 1.99, 1.72, 7.81, repro,
2006-10-23,-0.99, -1.61, 1.35, 2.09, 1.78, 8.19, repro,
2006-10-24,-1.17, -1.10, 0.96, 2.19, 1.79, 8.44, repro,
2006-10-25,-1.56, -1.13, 7.10, 2.07, 1.80, 8.01, repro,
2006-10-26,0.36, -0.61, 4.67, 2.03, 1.79, 7.97, repro,
2006-10-27,0.15, -0.11, -0.86, 1.99, 1.76, 7.90, repro,
2006-10-28,-0.44, 0.11, 1.49, 2.04, 1.70, 7.98, repro,
2006-10-29,-1.41, -0.36, 4.31, 1.97, 1.71, 7.68, repro,
2006-10-30,-1.83, -0.74, 7.31, 1.92, 1.65, 7.49, repro,
2006-10-31,-0.70, -1.55, 5.17, 1.95, 1.67, 7.57, repro,
2006-11-01,-0.56, -0.56, 2.98, 1.95, 1.68, 7.62, repro,
2006-11-02,-0.05, 0.63, 1.36, 1.95, 1.68, 7.63, repro,
2006-11-03,-0.28, -0.76, 3.94, 1.96, 1.72, 7.70, repro,
2006-11-04,-0.20, -1.41, 4.58, 2.00, 1.71, 7.75, repro,
2006-11-05,-0.54, -1.79, -2.78, 2.01, 1.76, 7.91, repro,
2006-11-06,-0.23, -0.74, -3.80, 1.96, 1.68, 7.68, repro,
2006-11-07,0.57, -0.07, -1.93, 2.07, 1.80, 8.21, repro,
2006-11-08,-0.78, -0.90, 10.09, 2.00, 1.72, 7.88, repro,
2006-11-09,0.54, -0.04, -0.20, 2.06, 1.79, 8.17, repro,
2006-11-10,0.37, -1.17, -1.07, 2.00, 1.68, 7.78, repro,
2006-11-11,0.92, -1.40, -0.64, 2.02, 1.72, 7.92, repro,
2006-11-12,-0.23, -1.39, -1.50, 2.07, 1.78, 8.01, repro,
2006-11-13,-0.05, -1.31, -1.46, 2.04, 1.72, 7.78, repro,
2006-11-14,-1.10, -2.27, 6.64, 1.92, 1.64, 7.46, repro,
2006-11-15,0.25, -0.78, -1.66, 1.92, 1.64, 7.40, repro,
2006-11-16,0.35, -0.56, 5.36, 1.92, 1.64, 7.44, repro,
2006-11-17,0.41, 0.20, 1.65, 1.91, 1.63, 7.39, repro,
2006-11-18,-0.45, -2.44, 2.01, 2.10, 1.80, 8.26, repro,
2006-11-19,0.08, -2.03, -1.68, 1.90, 1.63, 7.29, repro,
2006-11-20,-1.01, 0.55, -0.80, 1.91, 1.63, 7.37, repro,
2006-11-21,-0.05, -0.36, -0.55, 1.92, 1.64, 7.37, repro,
2006-11-22,-0.08, -1.58, 2.08, 1.91, 1.64, 7.38, repro,
2006-11-23,0.21, 0.04, -5.64, 1.94, 1.68, 7.59, repro,
2006-11-24,-0.49, -1.41, -3.43, 2.00, 1.71, 7.70, repro,
2006-11-25,-0.78, -0.87, 3.55, 1.93, 1.64, 7.38, repro,
2006-11-26,-1.00, -1.30, 0.65, 1.95, 1.66, 7.47, repro,
2006-11-27,-1.11, -2.22, 2.85, 1.97, 1.67, 7.57, repro,
2006-11-28,-0.24, -1.26, 2.50, 1.92, 1.64, 7.44, repro,
2006-11-29,-0.63, -0.04, -0.34, 1.92, 1.64, 7.38, repro,
2006-11-30,0.41, -0.40, -4.17, 1.91, 1.64, 7.36, repro,
2006-12-01,-0.22, -0.15, -7.08, 1.90, 1.63, 7.31, repro,
2006-12-02,0.07, -0.65, -7.03, 1.92, 1.65, 7.39, repro,
2006-12-03,-0.00, -0.77, -3.46, 1.92, 1.65, 7.42, repro,
2006-12-04,0.69, -0.56, -7.20, 1.97, 1.66, 7.52, repro,
2006-12-05,-0.29, -1.27, -2.53, 1.95, 1.71, 7.53, repro,
2006-12-06,0.41, -0.74, 0.76, 2.00, 1.79, 7.75, repro,
2006-12-07,0.20, -1.17, -0.70, 1.94, 1.72, 7.55, repro,
2006-12-08,0.57, -0.74, -1.30, 1.94, 1.72, 7.58, repro,
2006-12-09,-0.86, -1.33, 2.50, 1.96, 1.74, 7.61, repro,
2006-12-10,-0.19, -2.44, 5.01, 1.98, 1.73, 7.59, repro,
2006-12-11,-0.27, -1.95, -3.40, 1.96, 1.68, 7.51, repro,
2006-12-12,0.35, -0.93, -6.32, 2.04, 1.78, 7.94, repro,
2006-12-13,1.49, -1.44, 0.20, 1.95, 1.73, 7.62, repro,
2006-12-14,0.32, -1.20, -0.14, 1.91, 1.68, 7.45, repro,
2006-12-15,0.83, -2.32, -2.42, 2.01, 1.77, 7.82, repro,
2006-12-16,0.20, -1.15, -3.03, 1.98, 1.75, 7.63, repro,
2006-12-17,-0.01, -2.05, -0.36, 2.03, 1.84, 8.10, repro,
2006-12-18,1.25, -0.88, 1.83, 2.11, 1.93, 8.52, repro,
2006-12-19,1.13, -1.07, -1.81, 2.07, 1.92, 8.23, repro,
2006-12-20,0.46, -0.87, -3.13, 2.07, 1.89, 8.06, repro,
2006-12-21,-0.12, -1.69, -1.97, 1.93, 1.80, 7.60, repro,
2006-12-22,0.30, -1.90, 0.40, 2.10, 1.99, 8.37, repro,
2006-12-23,1.71, -0.15, -2.98, 2.03, 1.85, 8.03, repro,
2006-12-24,0.63, -0.11, -5.15, 1.91, 1.66, 7.46, repro,
2006-12-25,0.02, 0.29, -5.82, 1.99, 1.81, 7.74, repro,
2006-12-26,0.71, -2.18, -3.19, 2.00, 1.78, 7.94, repro,
2006-12-27,-0.37, -3.72, -0.50, 2.09, 1.89, 8.40, repro,
2006-12-28,-0.38, -2.00, 3.50, 2.15, 2.01, 8.74, repro,
2006-12-29,0.58, -1.05, -1.49, 2.19, 2.00, 8.73, repro,
2006-12-30,0.81, -1.26, -1.79, 2.03, 1.80, 7.84, repro,
2006-12-31,-0.34, -0.52, 8.58, 2.21, 2.08, 8.88, repro,
2007-01-01,-0.36, -1.72, -4.09, 2.22, 2.08, 8.87, repro,
2007-01-02,-0.08, -0.78, 0.47, 2.09, 1.95, 8.33, repro,
2007-01-03,1.70, -1.18, 2.71, 1.96, 1.81, 7.72, repro,
2007-01-04,1.20, -1.61, 1.70, 1.95, 1.76, 7.68, repro,
2007-01-05,0.72, -2.23, -0.31, 1.97, 1.78, 7.83, repro,
2007-01-06,1.72, -0.66, -9.54, 2.02, 1.88, 7.93, repro,
2007-01-07,2.57, 0.37, -12.76, 1.94, 1.68, 7.47, repro,
2007-01-08,1.49, -2.21, -5.29, 1.97, 1.73, 7.62, repro,
2007-01-09,1.48, -0.93, -4.53, 1.95, 1.70, 7.49, repro,
2007-01-10,1.29, -0.94, -1.14, 1.98, 1.73, 7.60, repro,
2007-01-11,0.23, -2.64, -6.19, 2.00, 1.69, 7.60, repro,
2007-01-12,0.06, -1.36, -5.14, 1.91, 1.62, 7.30, repro,
2007-01-13,0.92, -1.03, -12.21, 1.88, 1.61, 7.16, repro,
2007-01-14,1.06, -1.17, -9.16, 1.88, 1.62, 7.20, repro,
2007-01-15,1.19, -1.18, -11.04, 1.88, 1.62, 7.18, repro,
2007-01-16,1.53, -1.07, -10.72, 1.90, 1.62, 7.20, repro,
2007-01-17,0.81, -1.83, -5.07, 1.91, 1.66, 7.33, repro,
2007-01-18,1.06, -1.35, -13.14, 1.96, 1.71, 7.47, repro,
2007-01-19,1.28, -0.78, -9.13, 1.94, 1.64, 7.52, repro,
2007-01-20,1.44, -0.91, -3.75, 1.99, 1.71, 7.64, repro,
2007-01-21,0.29, -0.88, -6.70, 1.87, 1.62, 7.17, repro,
2007-01-22,1.38, -0.06, -7.62, 1.87, 1.62, 7.12, repro,
2007-01-23,1.55, -0.21, -10.67, 1.87, 1.61, 7.09, repro,
2007-01-24,0.73, -0.77, -10.00, 1.88, 1.62, 7.16, repro,
2007-01-25,1.17, -0.73, -11.07, 2.00, 1.81, 7.61, repro,
2007-01-26,1.13, -0.98, -5.73, 1.87, 1.62, 7.16, repro,
2007-01-27,0.28, -1.51, -2.72, 1.88, 1.61, 7.13, repro,
2007-01-28,0.44, -0.50, -9.77, 1.86, 1.60, 7.03, repro,
2007-01-29,0.87, -1.32, -9.61, 1.88, 1.61, 7.06, repro,
2007-01-30,0.76, -1.50, -4.71, 1.88, 1.61, 7.10, repro,
2007-01-31,0.61, -1.33, -2.09, 1.89, 1.63, 7.20, repro,
2007-02-01,0.01, -0.35, -6.08, 1.90, 1.65, 7.28, repro,
2007-02-02,-0.26, -0.85, -8.52, 1.90, 1.62, 7.22, repro,
2007-02-03,-0.19, -1.76, -10.27, 1.92, 1.63, 7.27, repro,
2007-02-04,0.61, -0.77, -2.45, 1.88, 1.61, 7.08, repro,
2007-02-05,1.11, -0.21, -8.44, 1.88, 1.61, 7.13, repro,
2007-02-06,0.83, 0.17, -8.39, 1.90, 1.62, 7.18, repro,
2007-02-07,-0.34, -0.95, -6.30, 1.87, 1.61, 7.10, repro,
2007-02-08,-0.25, -1.63, -9.06, 1.96, 1.69, 7.47, repro,
2007-02-09,1.41, 0.35, -5.00, 1.90, 1.68, 7.29, repro,
2007-02-10,-0.02, -0.26, -8.31, 1.88, 1.61, 7.11, repro,
2007-02-11,0.85, -0.49, 1.62, 1.86, 1.63, 7.15, repro,
2007-02-12,0.96, -0.78, -9.78, 1.86, 1.60, 7.06, repro,
2007-02-13,0.48, -1.03, -11.65, 1.88, 1.62, 7.14, repro,
2007-02-14,1.12, -0.84, -7.72, 1.88, 1.62, 7.12, repro,
2007-02-15,2.99, 0.26, -11.06, 1.89, 1.62, 7.13, repro,
2007-02-16,1.41, 1.07, -9.27, 1.89, 1.62, 7.15, repro,
2007-02-17,1.18, 1.09, -4.31, 1.91, 1.67, 7.30, repro,
2007-02-18,0.81, 0.30, 1.05, 1.88, 1.61, 7.18, repro,
2007-02-19,-0.30, -0.84, 4.64, 1.89, 1.61, 7.14, repro,
2007-02-20,0.13, -0.98, 2.67, 1.89, 1.61, 7.10, repro,
2007-02-21,0.97, -0.58, -2.47, 1.87, 1.60, 7.09, repro,
2007-02-22,0.55, 0.83, 0.23, 1.87, 1.63, 7.15, repro,
2007-02-23,1.67, 0.06, 2.10, 2.07, 1.72, 7.62, repro,
2007-02-24,1.04, -0.78, -2.46, 1.90, 1.61, 7.18, repro,
2007-02-25,0.04, 0.01, 3.87, 1.89, 1.61, 7.11, repro,
2007-02-26,0.07, -0.66, -1.96, 1.87, 1.60, 7.06, repro,
2007-02-27,0.75, -0.49, -1.22, 1.88, 1.60, 7.09, repro,
2007-02-28,0.18, -1.18, 7.68, 1.87, 1.61, 7.11, repro,
2007-03-01,0.68, 0.16, -0.08, 1.94, 1.67, 7.37, repro,
2007-03-02,1.24, -0.03, -3.57, 1.94, 1.68, 7.43, repro,
2007-03-03,0.25, 1.10, -7.97, 1.90, 1.64, 7.24, repro,
2007-03-04,1.21, 0.28, -6.07, 1.89, 1.64, 7.22, repro,
2007-03-05,0.54, 0.26, 1.01, 1.90, 1.64, 7.25, repro,
2007-03-06,1.45, -0.61, -1.56, 1.89, 1.64, 7.22, repro,
2007-03-07,0.63, 0.24, 4.63, 1.91, 1.65, 7.29, repro,
2007-03-08,0.52, -0.57, 3.47, 1.92, 1.65, 7.32, repro,
2007-03-09,0.06, -0.47, -5.38, 1.90, 1.65, 7.26, repro,
2007-03-10,2.16, 0.65, -0.89, 1.95, 1.69, 7.55, repro,
2007-03-11,-0.48, -1.24, -8.22, 1.89, 1.64, 7.21, repro,
2007-03-12,1.21, -0.08, -3.32, 1.92, 1.68, 7.49, repro,
2007-03-13,0.09, -0.19, -0.91, 1.90, 1.63, 7.25, repro,
2007-03-14,0.80, 0.88, -3.36, 1.90, 1.65, 7.31, repro,
2007-03-15,0.89, 0.13, -0.90, 1.94, 1.67, 7.41, repro,
2007-03-16,0.53, -0.32, -2.20, 1.91, 1.62, 7.17, repro,
2007-03-17,1.23, -0.68, 3.29, 1.87, 1.59, 7.05, repro,
2007-03-18,0.61, -0.00, 2.60, 1.91, 1.64, 7.28, repro,
2007-03-19,0.17, -0.66, 1.84, 1.91, 1.64, 7.25, repro,
2007-03-20,1.02, -0.72, 6.71, 1.95, 1.63, 7.35, repro,
2007-03-21,0.21, -2.12, 5.00, 1.97, 1.65, 7.43, repro,
2007-03-22,0.47, -1.62, 3.09, 1.92, 1.63, 7.30, repro,
2007-03-23,0.28, -0.69, 2.05, 1.90, 1.64, 7.28, repro,
2007-03-24,0.02, -0.44, 2.56, 1.91, 1.63, 7.30, repro,
2007-03-25,0.14, -0.69, 3.36, 1.89, 1.61, 7.19, repro,
2007-03-26,0.34, -0.78, -1.27, 1.88, 1.59, 7.07, repro,
2007-03-27,0.53, -1.58, 1.11, 1.96, 1.65, 7.39, repro,
2007-03-28,0.00, -1.20, 2.06, 1.93, 1.61, 7.23, repro,
2007-03-29,0.23, -0.67, -1.02, 1.91, 1.63, 7.28, repro,
2007-03-30,-0.02, -0.25, -3.24, 1.89, 1.59, 7.12, repro,
2007-03-31,0.20, -0.24, 1.90, 1.89, 1.60, 7.14, repro,
2007-04-01,0.24, 0.28, 3.80, 1.89, 1.59, 7.10, repro,
2007-04-02,-0.07, -0.00, 1.51, 1.90, 1.59, 7.13, repro,
2007-04-03,0.91, -0.12, -1.28, 1.90, 1.62, 7.20, repro,
2007-04-04,-0.04, -0.18, 2.59, 1.95, 1.69, 7.48, repro,
2007-04-05,-0.39, -0.34, 0.80, 1.98, 1.75, 7.65, repro,
2007-04-06,-0.37, -0.20, -1.98, 1.97, 1.72, 7.53, repro,
2007-04-07,0.59, -0.62, -0.17, 1.92, 1.63, 7.22, repro,
2007-04-08,1.13, -1.32, 0.92, 1.90, 1.59, 7.09, repro,
2007-04-09,-0.33, 0.32, 6.00, 1.88, 1.59, 7.06, repro,
2007-04-10,0.36, -0.40, 0.83, 1.92, 1.64, 7.27, repro,
2007-04-11,-0.06, -1.82, 4.43, 1.92, 1.64, 7.20, repro,
2007-04-12,0.10, -0.52, 5.21, 1.90, 1.60, 7.17, repro,
2007-04-13,1.17, -0.66, -1.21, 1.90, 1.59, 7.13, repro,
2007-04-14,0.52, 0.11, 8.49, 1.92, 1.60, 7.19, repro,
2007-04-15,-0.08, 0.48, 3.56, 1.88, 1.60, 7.12, repro,
2007-04-16,0.80, -0.29, -0.61, 1.89, 1.59, 7.14, repro,
2007-04-17,0.38, -0.16, 2.05, 1.90, 1.60, 7.17, repro,
2007-04-18,0.07, -1.46, 0.06, 1.89, 1.59, 7.15, repro,
2007-04-19,0.53, -0.69, -0.57, 1.98, 1.67, 7.41, repro,
2007-04-20,0.91, -1.36, 0.55, 1.88, 1.58, 7.11, repro,
2007-04-21,0.44, -1.77, 0.61, 1.89, 1.59, 7.13, repro,
2007-04-22,0.91, 0.10, -4.38, 1.90, 1.59, 7.16, repro,
2007-04-23,0.35, 0.12, 0.62, 1.93, 1.63, 7.26, repro,
2007-04-24,1.13, -0.67, -5.78, 1.97, 1.69, 7.40, repro,
2007-04-25,1.03, -0.04, -3.07, 1.92, 1.63, 7.27, repro,
2007-04-26,0.65, -0.98, 0.35, 1.90, 1.58, 7.13, repro,
2007-04-27,1.37, -0.17, -0.57, 1.89, 1.59, 7.14, repro,
2007-04-28,1.98, -0.05, 0.86, 1.93, 1.64, 7.22, repro,
2007-04-29,0.44, -0.78, -2.84, 1.95, 1.63, 7.30, repro,
2007-04-30,0.80, -0.31, -0.35, 1.91, 1.59, 7.18, repro,
2007-05-01,0.54, -0.45, 1.31, 1.90, 1.58, 7.14, repro,
2007-05-02,0.14, -0.12, -5.50, 1.97, 1.59, 7.41, repro,
2007-05-03,1.90, -0.15, 3.15, 2.02, 1.63, 7.55, repro,
2007-05-04,1.18, -0.51, 2.97, 1.92, 1.59, 7.19, repro,
2007-05-05,0.80, -1.39, 0.51, 2.00, 1.68, 7.40, repro,
2007-05-06,1.13, -1.59, 1.33, 1.92, 1.58, 7.19, repro,
2007-05-07,1.37, 0.15, -1.53, 1.90, 1.58, 7.18, repro,
2007-05-08,1.38, 0.27, -0.23, 1.91, 1.58, 7.18, repro,
2007-05-09,1.69, 0.10, 0.05, 1.91, 1.58, 7.16, repro,
2007-05-10,2.65, -0.63, -6.64, 2.08, 1.69, 7.79, repro,
2007-05-11,0.62, 0.25, -3.57, 2.06, 1.69, 7.78, repro,
2007-05-12,1.80, -0.29, -2.51, 1.93, 1.58, 7.18, repro,
2007-05-13,3.13, -0.12, 1.04, 1.94, 1.61, 7.22, repro,
2007-05-14,1.21, 0.64, -1.57, 1.94, 1.61, 7.25, repro,
2007-05-15,1.49, 0.01, -1.06, 1.92, 1.58, 7.15, repro,
2007-05-16,1.59, -0.88, -4.16, 1.95, 1.60, 7.28, repro,
2007-05-17,1.35, -0.47, 2.83, 1.94, 1.62, 7.31, repro,
2007-05-18,1.45, -1.65, 1.21, 2.05, 1.74, 7.58, repro,
2007-05-19,0.81, 0.32, -1.79, 1.94, 1.61, 7.19, repro,
2007-05-20,1.56, -0.39, 1.84, 1.99, 1.66, 7.39, repro,
2007-05-21,1.20, 0.02, 2.97, 1.97, 1.63, 7.32, repro,
2007-05-22,0.70, 0.41, 3.24, 1.97, 1.63, 7.32, repro,
2007-05-23,1.42, -0.14, 3.28, 1.99, 1.65, 7.37, repro,
2007-05-24,0.87, -0.99, 3.89, 2.07, 1.72, 7.69, repro,
2007-05-25,0.77, -0.05, 2.28, 1.95, 1.61, 7.21, repro,
2007-05-26,0.82, 0.62, -0.31, 1.96, 1.63, 7.33, repro,
2007-05-27,1.12, -0.56, 3.76, 1.98, 1.65, 7.30, repro,
2007-05-28,-0.00, -0.89, 0.53, 1.96, 1.62, 7.26, repro,
2007-05-29,1.06, 0.04, 0.94, 1.92, 1.57, 7.08, repro,
2007-05-30,1.08, -0.69, 0.57, 1.98, 1.58, 7.21, repro,
2007-05-31,1.16, -1.15, -2.39, 1.98, 1.63, 7.31, repro,
2007-06-01,0.06, -0.58, 3.41, 1.95, 1.60, 7.25, repro,
2007-06-02,0.29, -0.04, -0.86, 1.92, 1.59, 7.16, repro,
2007-06-03,0.31, -1.36, 1.15, 1.90, 1.58, 7.09, repro,
2007-06-04,1.52, 0.85, 1.23, 1.92, 1.58, 7.16, repro,
2007-06-05,1.31, -0.51, 6.41, 1.95, 1.60, 7.26, repro,
2007-06-06,1.48, -1.13, 9.80, 1.93, 1.60, 7.24, repro,
2007-06-07,1.58, -0.61, 7.61, 1.92, 1.59, 7.18, repro,
2007-06-08,1.72, -0.60, 3.16, 1.91, 1.58, 7.14, repro,
2007-06-09,0.65, 0.84, -0.06, 1.92, 1.62, 7.22, repro,
2007-06-10,1.75, 0.63, 0.40, 1.92, 1.59, 7.19, repro,
2007-06-11,1.97, 0.27, 3.87, 1.97, 1.69, 7.38, repro,
2007-06-12,0.64, 0.72, 2.87, 1.97, 1.70, 7.41, repro,
2007-06-13,0.18, 1.43, -2.39, 1.96, 1.64, 7.26, repro,
2007-06-14,0.92, 1.20, -3.70, 1.96, 1.65, 7.31, repro,
2007-06-15,2.18, 0.63, 3.28, 1.90, 1.58, 7.12, repro,
2007-06-16,2.20, -0.19, -4.14, 1.91, 1.59, 7.16, repro,
2007-06-17,1.35, 0.01, -5.23, 1.92, 1.59, 7.18, repro,
2007-06-18,2.12, 1.44, 2.62, 1.91, 1.59, 7.11, repro,
2007-06-19,0.79, 0.97, -5.57, 1.90, 1.58, 7.13, repro,
2007-06-20,1.24, 0.37, -7.47, 1.91, 1.58, 7.16, repro,
2007-06-21,1.05, -0.03, 1.76, 1.90, 1.57, 7.09, repro,
2007-06-22,1.41, 0.80, 0.36, 1.91, 1.59, 7.17, repro,
2007-06-23,1.46, 0.18, 0.80, 2.00, 1.66, 7.44, repro,
2007-06-24,-0.18, -0.33, 1.50, 1.94, 1.64, 7.39, repro,
2007-06-25,1.05, 0.90, -0.66, 1.91, 1.58, 7.16, repro,
2007-06-26,1.28, 0.01, -8.81, 1.90, 1.58, 7.13, repro,
2007-06-27,1.20, 0.16, -6.68, 1.91, 1.59, 7.18, repro,
2007-06-28,1.67, 0.63, -5.23, 1.93, 1.60, 7.25, repro,
2007-06-29,1.07, 0.72, -0.94, 1.91, 1.59, 7.23, repro,
2007-06-30,0.75, 0.92, 1.65, 1.91, 1.58, 7.17, repro,
2007-07-01,1.62, 0.05, -3.72, 1.91, 1.58, 7.17, repro,
2007-07-02,1.64, 0.81, 0.93, 1.91, 1.58, 7.14, repro,
2007-07-03,1.36, 1.36, -3.09, 1.92, 1.60, 7.23, repro,
2007-07-04,1.07, 1.30, -0.04, 1.93, 1.61, 7.30, repro,
2007-07-05,2.32, 0.46, -3.85, 1.92, 1.60, 7.23, repro,